Change the Weather History Date:

Friday, June 21, 2013

  Actual Average Record
Temperature  
Mean Temperature 72 °F 68 °F  
Max Temperature 78 °F 77 °F 101 °F (1988)
Min Temperature 65 °F 59 °F 40 °F (1969)
Degree Days  
Heating Degree Days 0 2  
Month to date heating degree days 87 74  
Since 1 June heating degree days 87 74  
Since 1 July heating degree days 6829 6884  
Cooling Degree Days 7 5  
Month to date cooling degree days 38 68  
Year to date cooling degree days 77 98  
Since 1 June cooling degree days 38 68  
Growing Degree Days 21 (Base 50)    
Moisture  
Dew Point 64 °F    
Average Humidity 69    
Maximum Humidity 84    
Minimum Humidity 53    
Precipitation  
Precipitation 0.88 in 0.12 in 4.23 in (1997)
Month to date precipitation 3.23 2.72  
Year to date precipitation 22.74 15.36  
Snow  
Snow 0.00 in 0.00 in 0.00 in ()
Month to date snowfall 0.0 0.0  
Since 1 June snowfall 0.0 0.0  
Since 1 July snowfall 45.0 46.9  
Snow Depth 0.00 in    
Sea Level Pressure  
Sea Level Pressure 30.05 in    
Wind  
Wind Speed 8 mph (SSW)    
Max Wind Speed 26 mph    
Max Gust Speed 38 mph    
Visibility 8 miles    
Events Rain , Thunderstorm    
T = Trace of Precipitation, MM = Missing Value Source: NWS Daily Summary

Daily Weather History Graph

Daily Weather History Graph

Search for Another Location

Airport or City:

Trip Planner

Search our weather history database for the weather conditions in past years. The results will help you decide how hot, cold, wet, or windy it might be!

Date:

Astronomy

Jun. 21, 2013 Rise Set
Actual Time 5:12 AM CDT 8:34 PM CDT
Civil Twilight 4:37 AM CDT 9:09 PM CDT
Nautical Twilight 3:51 AM CDT 9:55 PM CDT
Astronomical Twilight 2:54 AM CDT 10:52 PM CDT
Moon 6:42 PM CDT (6/21) 3:30 AM CDT (6/21)
Length of Visible Light 16h 32m
Length of Day
15h 21m
Waxing Gibbous, 95% of the Moon is Illuminated
Jun 21
Waxing Gibbous
Jun 23
Full
Jun 29
Last Quarter
Jul 8
New
Jul 15
First Quarter

Hourly Weather History & Observations

Time (CDT) Temp. Dew Point Humidity Pressure Visibility Wind Dir Wind Speed Gust Speed Precip Events Conditions
12:52 AM 69.1 °F 52.0 °F 54% 30.10 in 10.0 mi SSE 10.4 mph - N/A   Scattered Clouds
1:52 AM 68.0 °F 55.0 °F 63% 30.09 in 10.0 mi SE 8.1 mph - N/A   Partly Cloudy
2:52 AM 66.0 °F 59.0 °F 78% 30.07 in 10.0 mi SSE 4.6 mph - N/A   Partly Cloudy
3:52 AM 66.0 °F 61.0 °F 84% 30.07 in 9.0 mi SSW 5.8 mph - N/A   Partly Cloudy
4:52 AM 66.0 °F 61.0 °F 84% 30.06 in 8.0 mi SSW 5.8 mph - N/A   Scattered Clouds
5:52 AM 69.1 °F 62.1 °F 78% 30.08 in 8.0 mi SW 8.1 mph - N/A   Mostly Cloudy
6:52 AM 72.0 °F 63.0 °F 73% 30.04 in 9.0 mi South 9.2 mph - N/A   Mostly Cloudy
7:52 AM 75.9 °F 64.0 °F 67% 30.05 in 10.0 mi SSW 10.4 mph 19.6 mph N/A   Overcast
8:52 AM 78.1 °F 64.9 °F 64% 30.04 in 10.0 mi SSW 12.7 mph 18.4 mph N/A   Overcast
9:52 AM 77.0 °F 66.0 °F 69% 30.05 in 10.0 mi South 9.2 mph - N/A   Overcast
10:52 AM 75.9 °F 66.0 °F 71% 30.06 in 9.0 mi South 5.8 mph - 0.00 in Rain Light Rain
11:21 AM 73.4 °F 66.2 °F 78% 30.15 in 3.0 mi WNW 21.9 mph 38.0 mph 0.01 in Rain , Thunderstorm Thunderstorms and Rain
11:23 AM 71.6 °F 66.2 °F 83% 30.15 in 1.8 mi NW 18.4 mph 38.0 mph 0.05 in Rain , Thunderstorm Heavy Thunderstorms and Rain
11:26 AM 69.8 °F 66.2 °F 88% 30.15 in 0.8 mi WNW 9.2 mph 38.0 mph 0.15 in Rain , Thunderstorm Heavy Thunderstorms and Rain
11:52 AM 68.0 °F 66.9 °F 96% 30.12 in 2.0 mi South 3.5 mph - 0.68 in Rain , Thunderstorm Heavy Thunderstorms and Rain
11:59 AM 68.0 °F 66.2 °F 94% 30.12 in 3.0 mi SSE 8.1 mph - 0.02 in Rain , Thunderstorm Thunderstorms and Rain
12:38 PM 66.2 °F 66.2 °F 100% 30.09 in 4.0 mi South 13.8 mph - 0.09 in Rain Rain
12:52 PM 66.9 °F 66.0 °F 97% 30.07 in 10.0 mi South 12.7 mph - 0.10 in Rain Light Rain
1:52 PM 69.1 °F 66.9 °F 93% 29.96 in 10.0 mi South 23.0 mph 26.5 mph 0.00 in   Overcast
2:52 PM 72.0 °F 66.0 °F 81% 29.91 in 10.0 mi South 17.3 mph 23.0 mph N/A   Overcast
3:52 PM 75.9 °F 64.0 °F 67% 29.93 in 10.0 mi SSW 4.6 mph - N/A   Overcast
4:52 PM 75.9 °F 64.0 °F 67% 29.99 in 10.0 mi SSW 10.4 mph - N/A   Overcast
5:52 PM 75.9 °F 64.9 °F 69% 29.98 in 10.0 mi SW 6.9 mph - N/A   Overcast
6:52 PM 75.9 °F 64.9 °F 69% 30.00 in 10.0 mi SSW 6.9 mph - N/A   Overcast
7:52 PM 72.0 °F 64.9 °F 78% 30.00 in 10.0 mi South 8.1 mph - N/A   Overcast
8:52 PM 72.0 °F 64.0 °F 76% 30.03 in 10.0 mi SW 3.5 mph - N/A   Overcast
9:52 PM 71.1 °F 64.9 °F 81% 30.05 in 10.0 mi SSW 4.6 mph - 0.00 in Rain Light Rain
10:52 PM 70.0 °F 64.0 °F 81% 30.03 in 10.0 mi SSW 6.9 mph - 0.00 in   Mostly Cloudy
11:52 PM 71.1 °F 64.9 °F 81% 30.04 in 10.0 mi NW 6.9 mph - N/A   Mostly Cloudy